Zurück zum Katalog

CZ-6A DEB

AktivPO
NORAD 61085·DEBRIS·🇨🇳 China

Gestartet Aug 6, 2024 von Taiyuan Satellite Launch Center

Loading…

Nächste Überflüge (nächste 24 Stunden)

TLE

AktuellSource: Space-Track

Epoche: Sep 14, 2026, 18:51 UTC

1 61085U 24140NB  26257.78542550  .00000328  00000-0  14975-3 0  9991
2 61085  89.1333 277.2230 0047922 258.1397 101.4416 14.18741743106207

Verfolge CZ-6A DEB in Echtzeit mit AllMySat

Download on the App Store